Weather in Zarucheyny

Russia / Komi Republic     62°05′07″N   49°21′38″E
temp.,
°C
wind,
m/s
gust,
m/s
humid.,
%
clouds,
%
prec.,
mm/h
press.,
hPa
HPBL,
m
27 september, mon
mon2700:00+5e3895100 0.3 1021594
03:00+5e3796100 0.4 1023811
06:00+4e3897100 0.1 1025605
09:00+4ene3792100 0.1 1027575
12:00+7e367571 0.0 1028742
15:00+8e366427 0.0 1030816
18:00+3ene248254 0.0 103177
21:00+2e228533 0.0 103220
28 september, tue
tue2800:00+1ese11875 0.0 103310
03:000ne009256 0.0 103410
06:000nw009284 0.0 103410
09:00+5wnw116666 0.0 1034289
12:00+8wnw235454 0.0 1033767
15:00+9nw245897 0.0 1032891
18:00+6nw2384100 0.0 103262
21:00+6wnw2492100 0.1 1032126
29 september, wed
wed2900:00+6nw249499 0.0 1032137
03:00+6nnw2495100 0.1 1032119
06:00+6nnw1295100 0.1 103253
09:00+8nnw1287100 0.1 1032166
12:00+11nw1266100 0.0 1032778
15:00+11wnw126288 0.0 1031984
18:00+6w228299 0.0 103114
21:00+6w218799 0.0 103118
30 september, thu
thu3000:00+6wsw259567 0.0 1030114
03:00+5w279862 0.0 1029146
06:00+5w289794 0.0 1029201
09:00+8nw37775 0.0 1028408
12:00+12nw466428 0.0 1028790
15:00+12nw366766 0.0 1028944
18:00+8nw249094 0.0 102893
21:00+8nw1589100 0.0 1028192
1 october, fri
fri100:00+8nw1489100 0.0 1028126
03:00+7wnw2591100 0.0 1029187
06:00+7nw2592100 0.0 1029198
09:00+8nnw2484100 0.0 1030314
12:00+9nw2376100 0.0 1030545
15:00+9nw1377100 0.0 1030558
18:00+8nw1185100 0.0 103026
21:00+7wnw1286100 0.0 103165